Home   Weather   Narowal   Past weeks

Flag for Pakistan Past Weather in Narowal, Pakistan — Yesterday and Last 2 Weeks

Now
77 °F

Fog.


Feels Like: 78 °F
Forecast: 76 / 95 °F
Wind: No wind

Location: Amritsar Airport

Current Time: Sep 29, 2016 at 4:56:21 AM

Latest Report: Sep 29, 2016 at 4:30 AM


Visibility: 1 mi

Pressure: 29.71 "Hg

Humidity: 100%

Dew Point: 77 °F

Location of NarowalLocation

Past Weather in Narowal — Graph

°F

Narowal Temperature Yesterday

Maximum temperature yesterday: 91 °F (at 1:00 PM)
Minimum temperature yesterday: 77 °F (at 6:00 AM)
Average temperature yesterday: 84 °F

High & Low Weather Summary for the Past Weeks

 TemperatureHumidityPressure
High95 °F (Sep 17, 1:00 PM)100% (Sep 14, 6:00 AM)29.92 "Hg (Sep 14, 6:00 AM)
Low70 °F (Sep 27, 7:30 AM)56% (Sep 17, 11:30 AM)29.59 "Hg (Sep 20, 4:30 PM)
Average84 °F88%29.72 "Hg
* Reported Sep 14 3:30 AM — Sep 29 3:30 AM, Narowal, Weather by CustomWeather, © 2016

Note: Actual official high and low records may vary slightly from our data, if they occured in-between our weather recording intervals... More about our weather records

Advertising

Narowal Weather History for the Previous 24 Hours

Scroll right to see more
 ConditionsComfort  
Time TempWeatherWind HumidityBarometerVisibility
3:30 AM
Thu, Sep 29
79 °FFog.No wind100%29.71 "Hg1 mi
3:00 AM79 °FFog.No wind100%29.71 "Hg1 mi
2:30 AM79 °FFog.No wind100%29.71 "Hg1 mi
1:30 AM79 °FFog.No wind100%29.71 "Hg1 mi
1:00 AM81 °FFog.No wind100%29.71 "Hg1 mi
12:30 AM81 °FFog.No wind100%29.71 "Hg1 mi
12:00 AM81 °FFog.No wind100%29.71 "Hg1 mi
11:30 PM
Wed, Sep 28
81 °FFog.No wind100%29.71 "Hg1 mi
11:00 PM82 °FFog.No wind100%29.71 "Hg1 mi
10:30 PM82 °FFog.No wind100%29.71 "Hg1 mi
10:00 PM82 °FFog.No wind100%29.71 "Hg1 mi
9:30 PM82 °FFog.No wind100%29.71 "Hg1 mi
9:00 PM82 °FFog.No wind100%29.71 "Hg1 mi
8:30 PM82 °FFog.No wind100%29.71 "Hg1 mi
8:00 PM84 °FFog.No wind100%29.68 "Hg1 mi
7:30 PM84 °FFog.No wind100%29.68 "Hg1 mi
7:00 PM86 °FPassing clouds.No wind89%29.68 "Hg1 mi
6:30 PM86 °FPassing clouds.No wind94%29.68 "Hg1 mi
6:00 PM86 °FScattered clouds.No wind79%29.68 "Hg1 mi
5:30 PM88 °FScattered clouds.No wind79%29.65 "Hg1 mi
5:00 PM90 °FScattered clouds.2 mph71%29.68 "Hg1 mi
2:30 PM91 °FScattered clouds.6 mph63%29.68 "Hg1 mi
2:00 PM91 °FScattered clouds.2 mph59%29.68 "Hg1 mi
1:30 PM91 °FScattered clouds.2 mph59%29.71 "Hg1 mi
1:00 PM91 °FScattered clouds.3 mph67%29.71 "Hg1 mi
12:30 PM90 °FScattered clouds.3 mph67%29.74 "Hg1 mi
12:00 PM90 °FScattered clouds.2 mph71%29.74 "Hg1 mi
11:30 AM90 °FHaze.3 mph71%29.77 "Hg1 mi
11:00 AM88 °FFog.2 mph79%29.77 "Hg1 mi
10:30 AM88 °FFog.2 mph79%29.77 "Hg1 mi
10:00 AM86 °FFog.1 mph89%29.77 "Hg1 mi
9:30 AM86 °FFog.No wind94%29.77 "Hg1 mi
9:00 AM84 °FFog.No wind100%29.77 "Hg1 mi
8:30 AM82 °FFog.No wind100%29.77 "Hg1 mi
8:00 AM81 °FFog.No wind100%29.77 "Hg1 mi
7:30 AM81 °FFog.No wind100%29.77 "Hg1 mi
7:00 AM79 °FFog.No wind100%29.74 "Hg1 mi
6:30 AM77 °FFog.2 mph100%29.74 "Hg1 mi
6:00 AM77 °FFog.No wind100%29.74 "Hg1 mi
5:00 AM79 °FFog.No wind100%29.74 "Hg1 mi
4:30 AM79 °FFog.No wind100%29.71 "Hg1 mi
4:00 AM79 °FFog.No wind100%29.71 "Hg1 mi
Weather by CustomWeather, © 2016

See weather overviewHow to use our weather pages